DL3NBY Weather Reports


Display with metric or nautical units.
time (UTC)temp
F
wind
direction
speed
MPH
gust
MPH
rain 1hr
in
rain 24hr
in
rain mn
in
humidity
%
barometer
mb
20260510114022 73 0.0 2.0 0.00 0.00 0.00 57 1009.6
20260510113039 72 0.0 2.0 0.00 0.00 0.00 57 1009.7
20260510112036 72 0 1.0 5.0 0.00 0.00 0.00 59 1009.7
20260510111112 72 270 0.0 3.0 0.00 0.00 0.00 61 1009.8
20260510110113 71 180 1.0 2.0 0.00 0.00 0.00 63 1009.9
20260510105106 71 90 0.0 2.0 0.00 0.00 0.00 61 1010.0
20260510104144 70 225 1.0 3.0 0.00 0.00 0.00 66 1010.2
20260510103120 70 180 0.0 3.0 0.00 0.00 0.00 64 1010.2
20260510100110 68 188 1.0 4.0 0.00 0.00 0.00 67 1010.5
20260510095047 68 90 0.0 2.0 0.00 0.00 0.00 66 1010.6
20260510094104 67 249 0.0 4.0 0.00 0.00 0.00 68 1010.8
20260510093041 66 180 0.0 2.0 0.00 0.00 0.00 70 1010.8
20260510092038 66 315 0.0 2.0 0.00 0.00 0.00 70 1010.8
20260510091034 65 0.0 1.0 0.00 0.00 0.00 71 1010.9
20260510090031 64 90 0.0 2.0 0.00 0.00 0.00 72 1011.0
20260510085028 64 68 0.0 2.0 0.00 0.00 0.00 74 1011.1
20260510084025 63 0.0 2.0 0.00 0.00 0.00 73 1011.3
20260510083022 62 45 0.0 3.0 0.00 0.00 0.00 74 1011.3
20260510082018 62 287 0.0 3.0 0.00 0.00 0.00 76 1011.5
20260510081015 61 68 0.0 2.0 0.00 0.00 0.00 78 1011.5
20260510080112 60 0.0 2.0 0.00 0.00 0.00 79 1011.6
20260510073103 58 270 0.0 2.0 0.00 0.00 0.00 85 1011.8
20260510072120 57 0 0.0 2.0 0.00 0.00 0.00 86 1011.8
20260510071057 57 0 0.0 4.0 0.00 0.00 0.00 85 1011.9
20260510065050 56 0.0 1.0 0.00 0.00 0.00 88 1012.0
20260510064047 55 0.0 2.0 0.00 0.00 0.00 90 1012.1
20260510063044 54 0.0 1.0 0.00 0.00 0.00 92 1012.1
20260510061038 54 0.0 1.0 0.00 0.00 0.00 93 1012.2
20260510060055 53 0.0 0.0 0.00 0.00 0.00 93 1012.4
20260510055032 52 0.0 2.0 0.00 0.00 0.00 94 1012.3
20260510054031 51 0.0 0.0 0.00 0.00 0.00 94 1012.4
20260510053025 50 0.0 2.0 0.00 0.00 0.00 96 1012.4
20260510052023 50 0.0 2.0 0.00 0.00 0.00 99 1012.5
20260510051019 50 0.0 0.0 0.00 0.00 0.00 99 1012.6
20260510050016 49 0.0 0.0 0.00 0.00 0.00 99 1012.6
20260510044110 48 0.0 0.0 0.00 0.00 0.00 99 1012.7
20260510043127 48 0.0 0.0 0.00 0.00 0.00 99 1012.7
20260510042104 48 0.0 0.0 0.00 0.00 0.00 99 1012.8
20260510041101 47 0.0 0.0 0.00 0.00 0.00 99 1012.8
20260510040057 47 0.0 0.0 0.00 0.00 0.00 99 1012.7
20260510035114 46 0.0 0.0 0.00 0.00 0.00 99 1012.7
20260510034110 46 0.0 0.0 0.00 0.00 0.00 99 1012.7
20260510033047 47 0.0 0.0 0.00 0.00 0.00 99 1012.7
20260510031041 47 0.0 0.0 0.00 0.00 0.00 99 1012.8
20260510023028 48 0.0 2.0 0.00 0.00 0.00 99 1013.1
20260510022025 48 0.0 0.0 0.00 0.00 0.00 99 1013.0
20260510021022 48 0.0 0.0 0.00 0.00 0.00 99 1013.1
20260510020019 48 0.0 0.0 0.00 0.00 0.00 99 1013.1
20260510014113 47 0.0 0.0 0.00 0.00 0.00 99 1013.2
20260510012106 47 0.0 0.0 0.00 0.00 0.00 99 1013.3
20260510011103 47 0.0 0.0 0.00 0.00 0.00 99 1013.4
20260510010100 47 0.0 0.0 0.00 0.00 0.00 99 1013.4
20260510005056 47 0.0 0.0 0.00 0.00 0.00 99 1013.5
20260510004054 46 0.0 1.0 0.00 0.00 0.00 99 1013.6
20260510003050 46 0.0 0.0 0.00 0.00 0.00 99 1013.7
20260510002047 46 0.0 0.0 0.00 0.00 0.00 99 1013.9
20260510001044 47 0.0 0.0 0.00 0.00 0.00 99 1013.9
20260510000041 47 0.0 0.0 0.00 0.00 0.00 99 1014.0
20260509234054 47 0.0 0.0 0.00 0.00 0.00 99 1014.2
20260509233031 48 0.0 0.0 0.00 0.00 0.00 99 1014.3
20260509232028 48 0.0 0.0 0.00 0.00 0.00 99 1014.5
20260509231025 48 0.0 0.0 0.00 0.00 0.00 99 1014.4
20260509230042 49 0.0 0.0 0.00 0.00 0.00 99 1014.5
20260509224015 49 0.0 0.0 0.00 0.00 0.00 99 1014.7
20260509223112 49 0.0 0.0 0.00 0.00 0.00 99 1014.5
20260509222129 49 0.0 0.0 0.00 0.00 0.00 99 1014.6
20260509221106 49 0.0 0.0 0.00 0.00 0.00 98 1014.8
20260509215120 50 0.0 0.0 0.00 0.00 0.00 98 1014.7
20260509214057 50 0.0 0.0 0.00 0.00 0.00 98 1014.7
20260509213054 50 0.0 0.0 0.00 0.00 0.00 98 1014.6
20260509212050 51 0.0 0.0 0.00 0.00 0.00 98 1014.7
20260509211050 51 0.0 0.0 0.00 0.00 0.00 98 1014.7
20260509210103 51 0.0 0.0 0.00 0.00 0.00 97 1014.7
20260509205040 52 0.0 1.0 0.00 0.00 0.00 97 1014.8
20260509204037 52 0.0 0.0 0.00 0.00 0.00 96 1014.7
20260509203034 52 0.0 0.0 0.00 0.00 0.00 95 1014.8
20260509202031 51 0.0 1.0 0.00 0.00 0.00 95 1014.7
20260509201028 51 0.0 1.0 0.00 0.00 0.00 95 1014.8
20260509200025 52 0.0 0.0 0.00 0.00 0.00 96 1014.6
20260509195022 51 0.0 0.0 0.00 0.00 0.00 95 1014.7
20260509193015 52 0.0 0.0 0.00 0.00 0.00 96 1014.6
20260509192112 52 0.0 0.0 0.00 0.00 0.00 95 1014.4
20260509191149 53 0.0 0.0 0.00 0.00 0.00 95 1014.3
20260509190106 54 0.0 0.0 0.00 0.00 0.00 94 1014.2
20260509185103 55 0.0 1.0 0.00 0.00 0.00 94 1014.1
20260509183056 57 0.0 0.0 0.00 0.00 0.00 91 1014.1
20260509182053 58 0.0 0.0 0.00 0.00 0.00 90 1014.1
20260509181050 59 0.0 0.0 0.00 0.00 0.00 89 1014.2
20260509180107 61 0.0 0.0 0.00 0.00 0.00 85 1014.1
20260509174040 66 0.0 2.0 0.00 0.00 0.00 70 1014.1
20260509172034 69 0.0 1.0 0.00 0.00 0.00 59 1014.1
20260509171030 70 0.0 2.0 0.00 0.00 0.00 59 1014.2
20260509170028 70 0.0 0.0 0.00 0.00 0.00 61 1014.1
20260509164041 70 0.0 0.0 0.00 0.00 0.00 57 1014.1
20260509163018 70 270 0.0 2.0 0.00 0.00 0.00 59 1014.3
20260509161112 70 85 1.0 3.0 0.00 0.00 0.00 58 1014.4
20260509160109 70 345 0.0 2.0 0.00 0.00 0.00 60 1014.3
20260509154102 70 67 1.0 4.0 0.00 0.00 0.00 60 1014.6
20260509152056 70 101 0.0 3.0 0.00 0.00 0.00 57 1014.7
20260509151053 70 0 0.0 2.0 0.00 0.00 0.00 61 1014.8
20260509150050 71 192 1.0 4.0 0.00 0.00 0.00 59 1015.0
20260509145047 71 68 0.0 2.0 0.00 0.00 0.00 58 1014.9
20260509144103 70 0 0.0 2.0 0.00 0.00 0.00 58 1015.0
20260509143040 70 322 1.0 4.0 0.00 0.00 0.00 59 1015.2
20260509142037 70 285 1.0 4.0 0.00 0.00 0.00 61 1015.2
20260509141054 70 350 1.0 3.0 0.00 0.00 0.00 59 1015.3
20260509135027 69 342 0.0 2.0 0.00 0.00 0.00 63 1015.6
20260509134024 70 90 0.0 2.0 0.00 0.00 0.00 58 1015.8
20260509133021 68 0.0 2.0 0.00 0.00 0.00 60 1015.9
20260509132038 67 90 0.0 2.0 0.00 0.00 0.00 63 1016.0
20260509130111 68 90 0.0 3.0 0.00 0.00 0.00 59 1016.2
20260509125111 69 135 0.0 2.0 0.00 0.00 0.00 63 1016.3
20260509124105 69 142 1.0 3.0 0.00 0.00 0.00 59 1016.4
20260509121115 69 106 1.0 4.0 0.00 0.00 0.00 62 1016.6
20260509120052 68 90 0.0 3.0 0.00 0.00 0.00 60 1016.7